Regional Weather Roundup
Issued by NWS

Home | Current Version | Previous Version | Graphics & Text | Print | Product List | Glossary On
Versions: 1 2 3 4 5 6 7 8 9 10 11 12 13 14 15 16 17 18 19 20 21 22 23 24 25 26 27 28 29 30 31 32 33 34 35 36 37 38 39 40 41 42 43 44 45 46 47 48 49 50
000
ASUS43 KOAX 021510
RWRNE

WEATHER ROUNDUP FOR NEBRASKA
NATIONAL WEATHER SERVICE OMAHA NE
1000 AM CDT SUN AUG 02 2015

NOTES: SATELLITE DATA IS BEING USED TO AUGMENT CLOUD COVER ABOVE
       12000 FEET.
       "FAIR" INDICATES FEW OR NO CLOUDS BELOW 12,000 FEET WITH NO
       SIGNIFICANT WEATHER AND/OR OBSTRUCTIONS TO VISIBILITY.

  * THESE STATIONS DO NOT REPORT WEATHER SUCH AS RAIN...SNOW OR FOG.

NEZ001>004-019>022-054>056-021600-
NEBRASKA PANHANDLE

CITY           SKY/WX    TMP DP  RH WIND       PRES   REMARKS
SCOTTSBLUFF    SUNNY     73  58  59 CALM      30.02S
ALLIANCE       SUNNY     75  59  57 N9        30.01
CHADRON        SUNNY     77  58  51 SW7       29.98S
KIMBALL        SUNNY     74  55  51 CALM      30.07S
SIDNEY         SUNNY     79  58  48 W7        30.04S
$$

NEZ057>060-069>072-079>082-021600-
SOUTHWEST NEBRASKA

CITY           SKY/WX    TMP DP  RH WIND       PRES   REMARKS
NORTH PLATTE   SUNNY     76  63  64 CALM      29.95F
IMPERIAL       SUNNY     78  64  61 CALM      29.99R
LEXINGTON      SUNNY     80  68  66 CALM      29.95R
MCCOOK         SUNNY     81  67  62 SW6       29.95F
OGALLALA       SUNNY     75  65  72 W5        29.98S
$$

NEZ005>010-023>029-035>040-094-021600-
NORTH CENTRAL NEBRASKA

CITY           SKY/WX    TMP DP  RH WIND       PRES   REMARKS
AINSWORTH      SUNNY     79  63  57 W9        29.91S
BROKEN BOW     SUNNY     82  66  58 W6        29.93S
O`NEILL        SUNNY     82  65  56 W8        29.88R
ORD            SUNNY     81  66  60 W8        29.88S
THEDFORD       SUNNY     78  63  60 W6        29.96R
$$

NEZ041-046>049-061>064-073>077-083>087-021600-
SOUTH CENTRAL NEBRASKA

CITY           SKY/WX    TMP DP  RH WIND       PRES   REMARKS
GRAND ISLAND   SUNNY     83  69  62 SW12      29.90F
AURORA         SUNNY     80  73  78 SW9       29.89S
HASTINGS       SUNNY     79  70  74 SW8       29.92S
HEBRON         SUNNY     81  69  67 SW9G16    29.90F
HOLDREGE       SUNNY     81  68  64 SW5       29.94S
KEARNEY *      SUNNY     81  66  61 W8        29.93R
YORK           SUNNY     79  73  83 SW12      29.88F
$$

NEZ011>018-030>034-042>045-021600-
NORTHEAST NEBRASKA

CITY           SKY/WX    TMP DP  RH WIND       PRES   REMARKS
NORFOLK        SUNNY     78  65  63 SW7       29.85F
ALBION         SUNNY     78  64  62 CALM      29.88R
BLAIR          SUNNY     79  70  73 SW13      29.85S
COLUMBUS *     SUNNY     81  66  61 W6        29.87S
FREMONT        SUNNY     82  71  69 SW8       29.85F
TEKAMAH        SUNNY     81  71  71 SW13      29.82S
WAYNE          SUNNY     78  68  71 SW6       29.85R
$$

NEZ050>053-065>068-078-088>093-021600-
SOUTHEAST NEBRASKA

CITY           SKY/WX    TMP DP  RH WIND       PRES   REMARKS
LINCOLN        SUNNY     84  71  65 SW13      29.88F
OMAHA EPPLEY   MOSUNNY   84  71  65 SW8       29.85S
BEATRICE       MOSUNNY   81  72  74 SW9       29.89S
FALLS CITY     MOSUNNY   81  73  76 W8        29.91R
NEBRASKA CITY  PTSUNNY   79  74  85 SW7       29.89S
PLATTSMOUTH    MOSUNNY   79  74  82 S8        29.87F
$$

NEZ044-045-051>053-067-021600-
OMAHA AREA

CITY           SKY/WX    TMP DP  RH WIND       PRES   REMARKS
OMAHA EPPLEY   MOSUNNY   84  71  65 SW8       29.85S
BLAIR          SUNNY     79  70  73 SW13      29.85S
FREMONT        SUNNY     82  71  69 SW8       29.85F
MILLARD        SUNNY     83  72  70 SW8       29.85F
OFFUTT AFB     SUNNY     81  73  75 SW6       29.85F
PLATTSMOUTH    MOSUNNY   79  74  82 S8        29.87F
WAHOO          FAIR      82  71  70 SW14      29.85S
$$



USA.gov is the U.S. government's official web portal to all federal, state and local government web resources and services.